Year,Month,Day,Hour,Minute,Value (Times are PST for temperature in C)
2010,03,23,00,00,8.40
2010,03,23,00,01,8.40
2010,03,23,00,02,8.40
2010,03,23,00,03,8.40
2010,03,23,00,04,8.40
2010,03,23,00,05,8.40
2010,03,23,00,06,8.40
2010,03,23,00,07,8.40
2010,03,23,00,08,8.40
2010,03,23,00,09,8.40
2010,03,23,00,10,8.40
2010,03,23,00,11,8.40
2010,03,23,00,12,8.30
2010,03,23,00,13,8.30
2010,03,23,00,14,8.30
2010,03,23,00,15,8.30
2010,03,23,00,16,8.30
2010,03,23,00,17,8.30
2010,03,23,00,18,8.30
2010,03,23,00,19,8.30
2010,03,23,00,20,8.30
2010,03,23,00,21,8.30
2010,03,23,00,22,8.30
2010,03,23,00,23,8.30
2010,03,23,00,24,8.30
2010,03,23,00,25,8.30
2010,03,23,00,26,8.30
2010,03,23,00,27,8.20
2010,03,23,00,28,8.20
2010,03,23,00,29,8.20
2010,03,23,00,30,8.20
2010,03,23,00,31,8.20
2010,03,23,00,32,8.20
2010,03,23,00,33,8.20
2010,03,23,00,34,8.20
2010,03,23,00,35,8.20
2010,03,23,00,36,8.20
2010,03,23,00,37,8.10
2010,03,23,00,38,8.10
2010,03,23,00,39,8.10
2010,03,23,00,40,8.10
2010,03,23,00,41,8.10
2010,03,23,00,42,8.10
2010,03,23,00,43,8.10
2010,03,23,00,44,8.00
2010,03,23,00,45,8.00
2010,03,23,00,46,8.00
2010,03,23,00,47,8.00
2010,03,23,00,48,8.00
2010,03,23,00,49,8.00
2010,03,23,00,50,8.00
2010,03,23,00,51,8.00
2010,03,23,00,52,8.00
2010,03,23,00,53,8.00
2010,03,23,00,54,8.00
2010,03,23,00,55,8.00
2010,03,23,00,56,8.00
2010,03,23,00,57,8.00
2010,03,23,00,58,8.00
2010,03,23,00,59,8.00
2010,03,23,01,00,8.00
2010,03,23,01,01,8.00
2010,03,23,01,02,8.00
2010,03,23,01,03,8.00
2010,03,23,01,04,8.00
2010,03,23,01,05,8.00
2010,03,23,01,06,7.90
2010,03,23,01,07,7.90
2010,03,23,01,08,7.90
2010,03,23,01,09,7.90
2010,03,23,01,10,7.90
2010,03,23,01,11,7.90
2010,03,23,01,12,7.90
2010,03,23,01,13,7.90
2010,03,23,01,14,7.90
2010,03,23,01,15,7.90
2010,03,23,01,16,7.90
2010,03,23,01,17,7.90
2010,03,23,01,18,7.80
2010,03,23,01,19,7.80
2010,03,23,01,20,7.80
2010,03,23,01,21,7.80
2010,03,23,01,22,7.80
2010,03,23,01,23,7.80
2010,03,23,01,24,7.80
2010,03,23,01,25,7.80
2010,03,23,01,26,7.80
2010,03,23,01,27,7.80
2010,03,23,01,28,7.80
2010,03,23,01,29,7.80
2010,03,23,01,30,7.80
2010,03,23,01,31,7.80
2010,03,23,01,32,7.80
2010,03,23,01,33,7.80
2010,03,23,01,34,7.80
2010,03,23,01,35,7.80
2010,03,23,01,36,7.80
2010,03,23,01,37,7.80
2010,03,23,01,38,7.80
2010,03,23,01,39,7.80
2010,03,23,01,40,7.80
2010,03,23,01,41,7.80
2010,03,23,01,42,7.80
2010,03,23,01,43,7.80
2010,03,23,01,44,7.80
2010,03,23,01,45,7.80
2010,03,23,01,46,7.80
2010,03,23,01,47,7.80
2010,03,23,01,48,7.80
2010,03,23,01,49,7.80
2010,03,23,01,50,7.80
2010,03,23,01,51,7.80
2010,03,23,01,52,7.80
2010,03,23,01,53,7.80
2010,03,23,01,54,7.80
2010,03,23,01,55,7.80
2010,03,23,01,56,7.80
2010,03,23,01,57,7.80
2010,03,23,01,58,7.80
2010,03,23,01,59,7.80
2010,03,23,02,00,7.80
2010,03,23,02,01,7.80
2010,03,23,02,02,7.80
2010,03,23,02,03,7.70
2010,03,23,02,04,7.70
2010,03,23,02,05,7.70
2010,03,23,02,06,7.70
2010,03,23,02,07,7.70
2010,03,23,02,08,7.70
2010,03,23,02,09,7.70
2010,03,23,02,10,7.70
2010,03,23,02,11,7.70
2010,03,23,02,12,7.70
2010,03,23,02,13,7.70
2010,03,23,02,14,7.70
2010,03,23,02,15,7.70
2010,03,23,02,16,7.70
2010,03,23,02,17,7.80
2010,03,23,02,18,7.80
2010,03,23,02,19,7.80
2010,03,23,02,20,7.80
2010,03,23,02,21,7.80
2010,03,23,02,22,7.80
2010,03,23,02,23,7.80
2010,03,23,02,24,7.80
2010,03,23,02,25,7.80
2010,03,23,02,26,7.80
2010,03,23,02,27,7.80
2010,03,23,02,28,7.80
2010,03,23,02,29,7.80
2010,03,23,02,30,7.80
2010,03,23,02,31,7.80
2010,03,23,02,32,7.80
2010,03,23,02,33,7.80
2010,03,23,02,34,7.80
2010,03,23,02,35,7.80
2010,03,23,02,36,7.80
2010,03,23,02,37,7.80
2010,03,23,02,38,7.80
2010,03,23,02,39,7.80
2010,03,23,02,40,7.80
2010,03,23,02,41,7.70
2010,03,23,02,42,7.80
2010,03,23,02,43,7.70
2010,03,23,02,44,7.70
2010,03,23,02,45,7.70
2010,03,23,02,46,7.70
2010,03,23,02,47,7.70
2010,03,23,02,48,7.70
2010,03,23,02,49,7.70
2010,03,23,02,50,7.70
2010,03,23,02,51,7.70
2010,03,23,02,52,7.70
2010,03,23,02,53,7.60
2010,03,23,02,54,7.60
2010,03,23,02,55,7.60
2010,03,23,02,56,7.60
2010,03,23,02,57,7.60
2010,03,23,02,58,7.60
2010,03,23,02,59,7.60
2010,03,23,03,00,7.60
2010,03,23,03,01,7.60
2010,03,23,03,02,7.60
2010,03,23,03,03,7.60
2010,03,23,03,04,7.60
2010,03,23,03,05,7.60
2010,03,23,03,06,7.70
2010,03,23,03,07,7.70
2010,03,23,03,08,7.70
2010,03,23,03,09,7.70
2010,03,23,03,10,7.70
2010,03,23,03,11,7.70
2010,03,23,03,12,7.70
2010,03,23,03,13,7.70
2010,03,23,03,14,7.70
2010,03,23,03,15,7.70
2010,03,23,03,16,7.70
2010,03,23,03,17,7.60
2010,03,23,03,18,7.60
2010,03,23,03,19,7.60
2010,03,23,03,20,7.60
2010,03,23,03,21,7.60
2010,03,23,03,22,7.60
2010,03,23,03,23,7.60
2010,03,23,03,24,7.50
2010,03,23,03,25,7.50
2010,03,23,03,26,7.50
2010,03,23,03,27,7.40
2010,03,23,03,28,7.40
2010,03,23,03,29,7.40
2010,03,23,03,30,7.30
2010,03,23,03,31,7.30
2010,03,23,03,32,7.20
2010,03,23,03,33,7.10
2010,03,23,03,34,7.10
2010,03,23,03,35,7.00
2010,03,23,03,36,7.00
2010,03,23,03,37,6.90
2010,03,23,03,38,6.90
2010,03,23,03,39,6.90
2010,03,23,03,40,6.80
2010,03,23,03,41,6.80
2010,03,23,03,42,6.80
2010,03,23,03,43,6.70
2010,03,23,03,44,6.70
2010,03,23,03,45,6.70
2010,03,23,03,46,6.60
2010,03,23,03,47,6.60
2010,03,23,03,48,6.60
2010,03,23,03,49,6.60
2010,03,23,03,50,6.50
2010,03,23,03,51,6.50
2010,03,23,03,52,6.50
2010,03,23,03,53,6.40
2010,03,23,03,54,6.40
2010,03,23,03,55,6.40
2010,03,23,03,56,6.40
2010,03,23,03,57,6.40
2010,03,23,03,58,6.30
2010,03,23,03,59,6.30
2010,03,23,04,00,6.30
2010,03,23,04,01,6.30
2010,03,23,04,02,6.30
2010,03,23,04,03,6.30
2010,03,23,04,04,6.40
2010,03,23,04,05,6.40
2010,03,23,04,06,6.40
2010,03,23,04,07,6.40
2010,03,23,04,08,6.40
2010,03,23,04,09,6.40
2010,03,23,04,10,6.40
2010,03,23,04,11,6.40
2010,03,23,04,12,6.40
2010,03,23,04,13,6.40
2010,03,23,04,14,6.40
2010,03,23,04,15,6.40
2010,03,23,04,16,6.40
2010,03,23,04,17,6.40
2010,03,23,04,18,6.30
2010,03,23,04,19,6.30
2010,03,23,04,20,6.30
2010,03,23,04,21,6.30
2010,03,23,04,22,6.20
2010,03,23,04,23,6.20
2010,03,23,04,24,6.20
2010,03,23,04,25,6.20
2010,03,23,04,26,6.20
2010,03,23,04,27,6.10
2010,03,23,04,28,6.10
2010,03,23,04,29,6.10
2010,03,23,04,30,6.10
2010,03,23,04,31,6.00
2010,03,23,04,32,6.00
2010,03,23,04,33,6.00
2010,03,23,04,34,6.00
2010,03,23,04,35,6.00
2010,03,23,04,36,6.00
2010,03,23,04,37,5.90
2010,03,23,04,38,5.90
2010,03,23,04,39,5.90
2010,03,23,04,40,5.90
2010,03,23,04,41,5.90
2010,03,23,04,42,6.00
2010,03,23,04,43,6.00
2010,03,23,04,44,6.00
2010,03,23,04,45,6.00
2010,03,23,04,46,6.00
2010,03,23,04,47,6.00
2010,03,23,04,48,6.00
2010,03,23,04,49,6.00
2010,03,23,04,50,6.00
2010,03,23,04,51,6.00
2010,03,23,04,52,6.00
2010,03,23,04,53,5.90
2010,03,23,04,54,5.90
2010,03,23,04,55,5.90
2010,03,23,04,56,5.90
2010,03,23,04,57,5.90
2010,03,23,04,58,5.90
2010,03,23,04,59,5.90
2010,03,23,05,00,5.90
2010,03,23,05,01,5.90
2010,03,23,05,02,5.90
2010,03,23,05,03,5.90
2010,03,23,05,04,5.90
2010,03,23,05,05,5.90
2010,03,23,05,06,5.90
2010,03,23,05,07,5.90
2010,03,23,05,08,5.90
2010,03,23,05,09,5.90
2010,03,23,05,10,5.80
2010,03,23,05,11,5.80
2010,03,23,05,12,5.80
2010,03,23,05,13,5.70
2010,03,23,05,14,5.70
2010,03,23,05,15,5.70
2010,03,23,05,16,5.70
2010,03,23,05,17,5.70
2010,03,23,05,18,5.60
2010,03,23,05,19,5.60
2010,03,23,05,20,5.60
2010,03,23,05,21,5.60
2010,03,23,05,22,5.60
2010,03,23,05,23,5.60
2010,03,23,05,24,5.60
2010,03,23,05,25,5.60
2010,03,23,05,26,5.60
2010,03,23,05,27,5.60
2010,03,23,05,28,5.50
2010,03,23,05,29,5.50
2010,03,23,05,30,5.40
2010,03,23,05,31,5.40
2010,03,23,05,32,5.40
2010,03,23,05,33,5.40
2010,03,23,05,34,5.30
2010,03,23,05,35,5.30
2010,03,23,05,36,5.30
2010,03,23,05,37,5.20
2010,03,23,05,38,5.20
2010,03,23,05,39,5.20
2010,03,23,05,40,5.20
2010,03,23,05,41,5.10
2010,03,23,05,42,5.10
2010,03,23,05,43,5.10
2010,03,23,05,44,5.10
2010,03,23,05,45,5.10
2010,03,23,05,46,5.10
2010,03,23,05,47,5.10
2010,03,23,05,48,5.10
2010,03,23,05,49,5.10
2010,03,23,05,50,5.10
2010,03,23,05,51,5.10
2010,03,23,05,52,5.10
2010,03,23,05,53,5.00
2010,03,23,05,54,5.00
2010,03,23,05,55,5.00
2010,03,23,05,56,5.00
2010,03,23,05,57,5.00
2010,03,23,05,58,4.90
2010,03,23,05,59,4.90
2010,03,23,06,00,4.90
2010,03,23,06,01,4.90
2010,03,23,06,02,4.90
2010,03,23,06,03,4.90
2010,03,23,06,04,4.90
2010,03,23,06,05,4.90
2010,03,23,06,06,4.90
2010,03,23,06,07,4.90
2010,03,23,06,08,4.90
2010,03,23,06,09,4.90
2010,03,23,06,10,4.90
2010,03,23,06,11,4.90
2010,03,23,06,12,4.90
2010,03,23,06,13,4.90
2010,03,23,06,14,4.90
2010,03,23,06,15,4.90
2010,03,23,06,16,4.80
2010,03,23,06,17,4.80
2010,03,23,06,18,4.80
2010,03,23,06,19,4.80
2010,03,23,06,20,4.80
2010,03,23,06,21,4.80
2010,03,23,06,22,4.80
2010,03,23,06,23,4.80
2010,03,23,06,24,4.80
2010,03,23,06,25,4.80
2010,03,23,06,26,4.80
2010,03,23,06,27,4.80
2010,03,23,06,28,4.90
2010,03,23,06,29,4.90
2010,03,23,06,30,4.90
2010,03,23,06,31,4.90
2010,03,23,06,32,4.90
2010,03,23,06,33,4.90
2010,03,23,06,34,4.90
2010,03,23,06,35,4.90
2010,03,23,06,36,5.00
2010,03,23,06,37,5.00
2010,03,23,06,38,5.00
2010,03,23,06,39,5.00
2010,03,23,06,40,5.00
2010,03,23,06,41,5.00
2010,03,23,06,42,5.00
2010,03,23,06,43,5.00
2010,03,23,06,44,5.00
2010,03,23,06,45,5.00
2010,03,23,06,46,5.00
2010,03,23,06,47,5.00
2010,03,23,06,48,4.90
2010,03,23,06,49,4.90
2010,03,23,06,50,4.90
2010,03,23,06,51,4.90
2010,03,23,06,52,4.90
2010,03,23,06,53,4.90
2010,03,23,06,54,4.90
2010,03,23,06,55,4.80
2010,03,23,06,56,4.80
2010,03,23,06,57,4.80
2010,03,23,06,58,4.80
2010,03,23,06,59,4.80
2010,03,23,07,00,4.80
2010,03,23,07,01,4.80
2010,03,23,07,02,4.80
2010,03,23,07,03,4.80
2010,03,23,07,04,4.80
2010,03,23,07,05,4.80
2010,03,23,07,06,4.80
2010,03,23,07,07,4.80
2010,03,23,07,08,4.80
2010,03,23,07,09,4.90
2010,03,23,07,10,4.90
2010,03,23,07,11,4.90
2010,03,23,07,12,4.90
2010,03,23,07,13,4.90
2010,03,23,07,14,4.90
2010,03,23,07,15,4.90
2010,03,23,07,16,4.90
2010,03,23,07,17,4.90
2010,03,23,07,18,4.90
2010,03,23,07,19,4.90
2010,03,23,07,20,4.90
2010,03,23,07,21,4.80
2010,03,23,07,22,4.80
2010,03,23,07,23,4.80
2010,03,23,07,24,4.80
2010,03,23,07,25,4.70
2010,03,23,07,26,4.70
2010,03,23,07,27,4.70
2010,03,23,07,28,4.70
2010,03,23,07,29,4.70
2010,03,23,07,30,4.70
2010,03,23,07,31,4.70
2010,03,23,07,32,4.70
2010,03,23,07,33,4.70
2010,03,23,07,34,4.70
2010,03,23,07,35,4.60
2010,03,23,07,36,4.60
2010,03,23,07,37,4.60
2010,03,23,07,38,4.60
2010,03,23,07,39,4.60
2010,03,23,07,40,4.60
2010,03,23,07,41,4.60
2010,03,23,07,42,4.50
2010,03,23,07,43,4.50
2010,03,23,07,44,4.50
2010,03,23,07,45,4.50
2010,03,23,07,46,4.50
2010,03,23,07,47,4.50
2010,03,23,07,48,4.50
2010,03,23,07,49,4.50
2010,03,23,07,50,4.50
2010,03,23,07,51,4.50
2010,03,23,07,52,4.50
2010,03,23,07,53,4.60
2010,03,23,07,54,4.60
2010,03,23,07,55,4.60
2010,03,23,07,56,4.60
2010,03,23,07,57,4.60
2010,03,23,07,58,4.70
2010,03,23,07,59,4.70
2010,03,23,08,00,4.70
2010,03,23,08,01,4.70
2010,03,23,08,02,4.70
2010,03,23,08,03,4.70
2010,03,23,08,04,4.80
2010,03,23,08,05,4.80
2010,03,23,08,06,4.80
2010,03,23,08,07,4.80
2010,03,23,08,08,4.80
2010,03,23,08,09,4.80
2010,03,23,08,10,4.90
2010,03,23,08,11,4.90
2010,03,23,08,12,4.90
2010,03,23,08,13,5.00
2010,03,23,08,14,5.00
2010,03,23,08,15,5.00
2010,03,23,08,16,5.10
2010,03,23,08,17,5.10
2010,03,23,08,18,5.10
2010,03,23,08,19,5.20
2010,03,23,08,20,5.20
2010,03,23,08,21,5.20
2010,03,23,08,22,5.30
2010,03,23,08,23,5.30
2010,03,23,08,24,5.30
2010,03,23,08,25,5.30
2010,03,23,08,26,5.40
2010,03,23,08,27,5.40
2010,03,23,08,28,5.40
2010,03,23,08,29,5.50
2010,03,23,08,30,5.50
2010,03,23,08,31,5.60
2010,03,23,08,32,5.70
2010,03,23,08,33,5.80
2010,03,23,08,34,5.80
2010,03,23,08,35,5.90
2010,03,23,08,36,5.90
2010,03,23,08,37,6.00
2010,03,23,08,38,6.00
2010,03,23,08,39,6.10
2010,03,23,08,40,6.10
2010,03,23,08,41,6.20
2010,03,23,08,42,6.20
2010,03,23,08,43,6.30
2010,03,23,08,44,6.30
2010,03,23,08,45,6.40
2010,03,23,08,46,6.50
2010,03,23,08,47,6.50
2010,03,23,08,48,6.60
2010,03,23,08,49,6.70
2010,03,23,08,50,6.70
2010,03,23,08,51,6.80
2010,03,23,08,52,6.90
2010,03,23,08,53,7.00
2010,03,23,08,54,7.00
2010,03,23,08,55,7.10
2010,03,23,08,56,7.10
2010,03,23,08,57,7.20
2010,03,23,08,58,7.30
2010,03,23,08,59,7.30
2010,03,23,09,00,7.30
2010,03,23,09,01,7.40
2010,03,23,09,02,7.50
2010,03,23,09,03,7.50
2010,03,23,09,04,7.60
2010,03,23,09,05,7.60
2010,03,23,09,06,7.60
2010,03,23,09,07,7.60
2010,03,23,09,08,7.70
2010,03,23,09,09,7.70
2010,03,23,09,10,7.70
2010,03,23,09,11,7.70
2010,03,23,09,12,7.80
2010,03,23,09,13,7.80
2010,03,23,09,14,7.80
2010,03,23,09,15,7.80
2010,03,23,09,16,7.80
2010,03,23,09,17,7.80
2010,03,23,09,18,7.80
2010,03,23,09,19,7.80
2010,03,23,09,20,7.80
2010,03,23,09,21,7.90
2010,03,23,09,22,7.90
2010,03,23,09,23,7.90
2010,03,23,09,24,7.90
2010,03,23,09,25,7.90
2010,03,23,09,26,8.00
2010,03,23,09,27,7.90
2010,03,23,09,28,7.90
2010,03,23,09,29,7.90
2010,03,23,09,30,7.90
2010,03,23,09,31,7.90
2010,03,23,09,32,8.00
2010,03,23,09,33,8.00
2010,03,23,09,34,8.00
2010,03,23,09,35,8.00
2010,03,23,09,36,8.10
2010,03,23,09,37,8.10
2010,03,23,09,38,8.20
2010,03,23,09,39,8.20
2010,03,23,09,40,8.30
2010,03,23,09,41,8.40
2010,03,23,09,42,8.40
2010,03,23,09,43,8.50
2010,03,23,09,44,8.60
2010,03,23,09,45,8.70
2010,03,23,09,46,8.80
2010,03,23,09,47,8.80
2010,03,23,09,48,8.90
2010,03,23,09,49,8.90
2010,03,23,09,50,8.90
2010,03,23,09,51,8.90
2010,03,23,09,52,8.90
2010,03,23,09,53,8.90
2010,03,23,09,54,9.00
2010,03,23,09,55,9.00
2010,03,23,09,56,9.10
2010,03,23,09,57,9.20
2010,03,23,09,58,9.30
2010,03,23,09,59,9.30
2010,03,23,10,00,9.30
2010,03,23,10,01,9.40
2010,03,23,10,02,9.40
2010,03,23,10,03,9.40
2010,03,23,10,04,9.40
2010,03,23,10,05,9.40
2010,03,23,10,06,9.40
2010,03,23,10,07,9.40
2010,03,23,10,08,9.40
2010,03,23,10,09,9.50
2010,03,23,10,10,9.60
2010,03,23,10,11,9.60
2010,03,23,10,12,9.60
2010,03,23,10,13,9.60
2010,03,23,10,14,9.60
2010,03,23,10,15,9.60
2010,03,23,10,16,9.70
2010,03,23,10,17,9.70
2010,03,23,10,18,9.80
2010,03,23,10,19,9.80
2010,03,23,10,20,9.90
2010,03,23,10,21,10.00
2010,03,23,10,22,10.00
2010,03,23,10,23,10.00
2010,03,23,10,24,10.10
2010,03,23,10,25,10.10
2010,03,23,10,26,10.20
2010,03,23,10,27,10.20
2010,03,23,10,28,10.20
2010,03,23,10,29,10.20
2010,03,23,10,30,10.20
2010,03,23,10,31,10.20
2010,03,23,10,32,10.20
2010,03,23,10,33,10.20
2010,03,23,10,34,10.10
2010,03,23,10,35,10.10
2010,03,23,10,36,10.00
2010,03,23,10,37,10.00
2010,03,23,10,38,9.90
2010,03,23,10,39,9.80
2010,03,23,10,40,9.80
2010,03,23,10,41,9.70
2010,03,23,10,42,9.70
2010,03,23,10,43,9.70
2010,03,23,10,44,9.70
2010,03,23,10,45,9.70
2010,03,23,10,46,9.70
2010,03,23,10,47,9.80
2010,03,23,10,48,9.80
2010,03,23,10,49,9.80
2010,03,23,10,50,9.90
2010,03,23,10,51,10.00
2010,03,23,10,52,10.00
2010,03,23,10,53,10.10
2010,03,23,10,54,10.10
2010,03,23,10,55,10.10
2010,03,23,10,56,10.10
2010,03,23,10,57,10.10
2010,03,23,10,58,10.10
2010,03,23,10,59,10.10
2010,03,23,11,00,10.10
2010,03,23,11,01,10.10
2010,03,23,11,02,10.10
2010,03,23,11,03,10.10
2010,03,23,11,04,10.10
2010,03,23,11,05,10.10
2010,03,23,11,06,10.10
2010,03,23,11,07,10.20
2010,03,23,11,08,10.20
2010,03,23,11,09,10.20
2010,03,23,11,10,10.20
2010,03,23,11,11,10.20
2010,03,23,11,12,10.20
2010,03,23,11,13,10.20
2010,03,23,11,14,10.20
2010,03,23,11,15,10.30
2010,03,23,11,16,10.30
2010,03,23,11,17,10.30
2010,03,23,11,18,10.20
2010,03,23,11,19,10.20
2010,03,23,11,20,10.30
2010,03,23,11,21,10.30
2010,03,23,11,22,10.30
2010,03,23,11,23,10.30
2010,03,23,11,24,10.40
2010,03,23,11,25,10.40
2010,03,23,11,26,10.40
2010,03,23,11,27,10.50
2010,03,23,11,28,10.50
2010,03,23,11,29,10.60
2010,03,23,11,30,10.60
2010,03,23,11,31,10.70
2010,03,23,11,32,10.70
2010,03,23,11,33,10.80
2010,03,23,11,34,10.90
2010,03,23,11,35,11.00
2010,03,23,11,36,11.00
2010,03,23,11,37,11.10
2010,03,23,11,38,11.10
2010,03,23,11,39,11.10
2010,03,23,11,40,11.10
2010,03,23,11,41,11.00
2010,03,23,11,42,11.10
2010,03,23,11,43,11.10
2010,03,23,11,44,11.10
2010,03,23,11,45,11.10
2010,03,23,11,46,11.10
2010,03,23,11,47,11.10
2010,03,23,11,48,11.10
2010,03,23,11,49,11.10
2010,03,23,11,50,11.10
2010,03,23,11,51,11.10
2010,03,23,11,52,11.10
2010,03,23,11,53,11.10
2010,03,23,11,54,11.20
2010,03,23,11,55,11.20
2010,03,23,11,56,11.30
2010,03,23,11,57,11.30
2010,03,23,11,58,11.30
2010,03,23,11,59,11.40
2010,03,23,12,00,11.40
2010,03,23,12,01,11.40
2010,03,23,12,02,11.40
2010,03,23,12,03,11.40
2010,03,23,12,04,11.40
2010,03,23,12,05,11.40
2010,03,23,12,06,11.40
2010,03,23,12,07,11.40
2010,03,23,12,08,11.50
2010,03,23,12,09,11.50
2010,03,23,12,10,11.50
2010,03,23,12,11,11.60
2010,03,23,12,12,11.60
2010,03,23,12,13,11.60
2010,03,23,12,14,11.60
2010,03,23,12,15,11.60
2010,03,23,12,16,11.50
2010,03,23,12,17,11.50
2010,03,23,12,18,11.50
2010,03,23,12,19,11.50
2010,03,23,12,20,11.50
2010,03,23,12,21,11.50
2010,03,23,12,22,11.60
2010,03,23,12,23,11.70
2010,03,23,12,24,11.70
2010,03,23,12,25,11.80
2010,03,23,12,26,11.80
2010,03,23,12,27,11.80
2010,03,23,12,28,11.80
2010,03,23,12,29,11.80
2010,03,23,12,30,11.80
2010,03,23,12,31,11.90
2010,03,23,12,32,11.90
2010,03,23,12,33,12.00
2010,03,23,12,34,12.10
2010,03,23,12,35,12.10
2010,03,23,12,36,12.20
2010,03,23,12,37,12.20
2010,03,23,12,38,12.20
2010,03,23,12,39,12.20
2010,03,23,12,40,12.20
2010,03,23,12,41,12.20
2010,03,23,12,42,12.30
2010,03,23,12,43,12.30
2010,03,23,12,44,12.30
2010,03,23,12,45,12.20
2010,03,23,12,46,12.20
2010,03,23,12,47,12.20
2010,03,23,12,48,12.20
2010,03,23,12,49,12.20
2010,03,23,12,50,12.20
2010,03,23,12,51,12.10
2010,03,23,12,52,12.00
2010,03,23,12,53,11.90
2010,03,23,12,54,11.90
2010,03,23,12,55,11.90
2010,03,23,12,56,11.90
2010,03,23,12,57,12.00
2010,03,23,12,58,12.00
2010,03,23,12,59,12.10
2010,03,23,13,00,12.10
2010,03,23,13,01,12.20
2010,03,23,13,02,12.20
2010,03,23,13,03,12.20
2010,03,23,13,04,12.10
2010,03,23,13,05,12.10
2010,03,23,13,06,12.00
2010,03,23,13,07,12.00
2010,03,23,13,08,11.90
2010,03,23,13,09,11.90
2010,03,23,13,10,11.90
2010,03,23,13,11,11.80
2010,03,23,13,12,11.80
2010,03,23,13,13,11.90
2010,03,23,13,14,11.90
2010,03,23,13,15,11.90
2010,03,23,13,16,11.90
2010,03,23,13,17,11.90
2010,03,23,13,18,11.80
2010,03,23,13,19,11.80
2010,03,23,13,20,11.70
2010,03,23,13,21,11.70
2010,03,23,13,22,11.70
2010,03,23,13,23,11.70
2010,03,23,13,24,11.70
2010,03,23,13,25,11.70
2010,03,23,13,26,11.70
2010,03,23,13,27,11.60
2010,03,23,13,28,11.60
2010,03,23,13,29,11.60
2010,03,23,13,30,11.60
2010,03,23,13,31,11.60
2010,03,23,13,32,11.60
2010,03,23,13,33,11.60
2010,03,23,13,34,11.70
2010,03,23,13,35,11.70
2010,03,23,13,36,11.70
2010,03,23,13,37,11.70
2010,03,23,13,38,11.70
2010,03,23,13,39,11.70
2010,03,23,13,40,11.70
2010,03,23,13,41,11.60
2010,03,23,13,42,11.60
2010,03,23,13,43,11.50
2010,03,23,13,44,11.40
2010,03,23,13,45,11.40
2010,03,23,13,46,11.30
2010,03,23,13,47,11.40
2010,03,23,13,48,11.40
2010,03,23,13,49,11.50
2010,03,23,13,50,11.50
2010,03,23,13,51,11.60
2010,03,23,13,52,11.60
2010,03,23,13,53,11.70
2010,03,23,13,54,11.70
2010,03,23,13,55,11.70
2010,03,23,13,56,11.60
2010,03,23,13,57,11.60
2010,03,23,13,58,11.70
2010,03,23,13,59,11.70
2010,03,23,14,00,11.70
2010,03,23,14,01,11.70
2010,03,23,14,02,11.70
2010,03,23,14,03,11.70
2010,03,23,14,04,11.70
2010,03,23,14,05,11.70
2010,03,23,14,06,11.80
2010,03,23,14,07,11.80
2010,03,23,14,08,11.80
2010,03,23,14,09,11.80
2010,03,23,14,10,11.90
2010,03,23,14,11,11.90
2010,03,23,14,12,11.90
2010,03,23,14,13,12.00
2010,03,23,14,14,12.00
2010,03,23,14,15,12.10
2010,03,23,14,16,12.10
2010,03,23,14,17,12.10
2010,03,23,14,18,12.10
2010,03,23,14,19,12.00
2010,03,23,14,20,11.90
2010,03,23,14,21,11.80
2010,03,23,14,22,11.80
2010,03,23,14,23,11.70
2010,03,23,14,24,11.70
2010,03,23,14,25,11.70
2010,03,23,14,26,11.70
2010,03,23,14,27,11.70
2010,03,23,14,28,11.70
2010,03,23,14,29,11.70
2010,03,23,14,30,11.60
2010,03,23,14,31,11.60
2010,03,23,14,32,11.60
2010,03,23,14,33,11.60
2010,03,23,14,34,11.60
2010,03,23,14,35,11.60
2010,03,23,14,36,11.60
2010,03,23,14,37,11.60
2010,03,23,14,38,11.60
2010,03,23,14,39,11.70
2010,03,23,14,40,11.80
2010,03,23,14,41,11.80
2010,03,23,14,42,11.90
2010,03,23,14,43,11.80
2010,03,23,14,44,11.80
2010,03,23,14,45,11.80
2010,03,23,14,46,11.80
2010,03,23,14,47,11.80
2010,03,23,14,48,11.80
2010,03,23,14,49,11.80
2010,03,23,14,50,11.90
2010,03,23,14,51,11.90
2010,03,23,14,52,12.00
2010,03,23,14,53,12.10
2010,03,23,14,54,12.10
2010,03,23,14,55,12.10
2010,03,23,14,56,12.20
2010,03,23,14,57,12.20
2010,03,23,14,58,12.20
2010,03,23,14,59,12.20
2010,03,23,15,00,12.20
2010,03,23,15,01,12.10
2010,03,23,15,02,12.10
2010,03,23,15,03,12.10
2010,03,23,15,04,12.10
2010,03,23,15,05,12.10
2010,03,23,15,06,12.10
2010,03,23,15,07,12.10
2010,03,23,15,08,12.10
2010,03,23,15,09,12.10
2010,03,23,15,10,12.10
2010,03,23,15,11,12.20
2010,03,23,15,12,12.20
2010,03,23,15,13,12.20
2010,03,23,15,14,12.30
2010,03,23,15,15,12.30
2010,03,23,15,16,12.30
2010,03,23,15,17,12.30
2010,03,23,15,18,12.30
2010,03,23,15,19,12.30
2010,03,23,15,20,12.30
2010,03,23,15,21,12.30
2010,03,23,15,22,12.30
2010,03,23,15,23,12.30
2010,03,23,15,24,12.30
2010,03,23,15,25,12.30
2010,03,23,15,26,12.30
2010,03,23,15,27,12.30
2010,03,23,15,28,12.30
2010,03,23,15,29,12.40
2010,03,23,15,30,12.30
2010,03,23,15,31,12.30
2010,03,23,15,32,12.30
2010,03,23,15,33,12.30
2010,03,23,15,34,12.30
2010,03,23,15,35,12.30
2010,03,23,15,36,12.20
2010,03,23,15,37,12.20
2010,03,23,15,38,12.20
2010,03,23,15,39,12.20
2010,03,23,15,40,12.20
2010,03,23,15,41,12.10
2010,03,23,15,42,12.10
2010,03,23,15,43,12.10
2010,03,23,15,44,12.10
2010,03,23,15,45,12.00
2010,03,23,15,46,12.00
2010,03,23,15,47,12.10
2010,03,23,15,48,12.10
2010,03,23,15,49,12.10
2010,03,23,15,50,12.10
2010,03,23,15,51,12.20
2010,03,23,15,52,12.20
2010,03,23,15,53,12.20
2010,03,23,15,54,12.20
2010,03,23,15,55,12.10
2010,03,23,15,56,12.10
2010,03,23,15,57,12.00
2010,03,23,15,58,12.00
2010,03,23,15,59,12.00
2010,03,23,16,00,12.00
2010,03,23,16,01,11.90
2010,03,23,16,02,11.90
2010,03,23,16,03,11.90
2010,03,23,16,04,11.90
2010,03,23,16,05,11.90
2010,03,23,16,06,11.90
2010,03,23,16,07,11.90
2010,03,23,16,08,12.00
2010,03,23,16,09,12.00
2010,03,23,16,10,12.00
2010,03,23,16,11,12.00
2010,03,23,16,12,12.10
2010,03,23,16,13,12.10
2010,03,23,16,14,12.20
2010,03,23,16,15,12.20
2010,03,23,16,16,12.30
2010,03,23,16,17,12.40
2010,03,23,16,18,12.40
2010,03,23,16,19,12.40
2010,03,23,16,20,12.40
2010,03,23,16,21,12.40
2010,03,23,16,22,12.40
2010,03,23,16,23,12.40
2010,03,23,16,24,12.40
2010,03,23,16,25,12.30
2010,03,23,16,26,12.20
2010,03,23,16,27,12.20
2010,03,23,16,28,12.20
2010,03,23,16,29,12.10
2010,03,23,16,30,12.10
2010,03,23,16,31,12.00
2010,03,23,16,32,11.90
2010,03,23,16,33,11.90
2010,03,23,16,34,11.90
2010,03,23,16,35,11.90
2010,03,23,16,36,11.90
2010,03,23,16,37,11.90
2010,03,23,16,38,11.90
2010,03,23,16,39,11.90
2010,03,23,16,40,11.80
2010,03,23,16,41,11.80
2010,03,23,16,42,11.80
2010,03,23,16,43,11.80
2010,03,23,16,44,11.90
2010,03,23,16,45,11.90
2010,03,23,16,46,11.90
2010,03,23,16,47,11.90
2010,03,23,16,48,11.90
2010,03,23,16,49,11.90
2010,03,23,16,50,11.90
2010,03,23,16,51,11.90
2010,03,23,16,52,12.00
2010,03,23,16,53,12.00
2010,03,23,16,54,12.10
2010,03,23,16,55,12.10
2010,03,23,16,56,12.10
2010,03,23,16,57,12.10
2010,03,23,16,58,12.10
2010,03,23,16,59,12.10
2010,03,23,17,00,12.10
2010,03,23,17,01,12.00
2010,03,23,17,02,12.00
2010,03,23,17,03,12.00
2010,03,23,17,04,12.00
2010,03,23,17,05,12.00
2010,03,23,17,06,11.90
2010,03,23,17,07,11.90
2010,03,23,17,08,12.00
2010,03,23,17,09,11.90
2010,03,23,17,10,11.90
2010,03,23,17,11,11.90
2010,03,23,17,12,11.90
2010,03,23,17,13,11.80
2010,03,23,17,14,11.80
2010,03,23,17,15,11.80
2010,03,23,17,16,11.80
2010,03,23,17,17,11.80
2010,03,23,17,18,11.70
2010,03,23,17,19,11.70
2010,03,23,17,20,11.70
2010,03,23,17,21,11.70
2010,03,23,17,22,11.70
2010,03,23,17,23,11.70
2010,03,23,17,24,11.60
2010,03,23,17,25,11.60
2010,03,23,17,26,11.60
2010,03,23,17,27,11.60
2010,03,23,17,28,11.60
2010,03,23,17,29,11.60
2010,03,23,17,30,11.60
2010,03,23,17,31,11.60
2010,03,23,17,32,11.60
2010,03,23,17,33,11.70
2010,03,23,17,34,11.70
2010,03,23,17,35,11.70
2010,03,23,17,36,11.60
2010,03,23,17,37,11.60
2010,03,23,17,38,11.70
2010,03,23,17,39,11.70
2010,03,23,17,40,11.70
2010,03,23,17,41,11.70
2010,03,23,17,42,11.70
2010,03,23,17,43,11.70
2010,03,23,17,44,11.70
2010,03,23,17,45,11.70
2010,03,23,17,46,11.70
2010,03,23,17,47,11.70